星链-31569 (STARLINK-31569 )

导读 | 豆包AI

STARLINK-31569是美国SpaceX公司星链(Starlink)星座的成员卫星,于2024年5月23日发射入轨。星链是全球规模最大的低轨宽带互联网星座,依托近地轨道组网,提供延迟低至20-30毫秒的高速网络接入服务,可覆盖偏远地区、航空、海洋等场景。该卫星部署在约550千米近地轨道,配备相控阵天线等技术,助力星座扩容,进一步提升全球覆盖容量与通信能力,同时星链也存在空间碎片和光污染等争议问题。

基本信息
目录编号:
59857
目录名称:
STARLINK-31569
国际标识:
2024-097Y
轨道中心:
EARTH
卫星名称:
星链-31569
卫星全名:
星链-31569 (STARLINK-31569 )
卫星状态:
在轨 (已飞行708 天)
发射日期:
2024-05-23 UTC
国别 :
美国 (US)
星等 :
--
轨道信息
数据来源 国际轨道数据 AOE轨道数据
星历时间 2026-04-30T23:45:08+0800
8小时前
查看轨道信息
2026-04-29T18:00:00+0800
1天前
查看轨道信息
半长轴 6861.173km 6861.194km
偏心率 0.0000795 0.0000405
轨道倾角 43.003° 43.007°
近地点辐角 266.215° 285.231°
升交点赤经 340.944° 347.947°
平近点角 93.861° 89.509°
近地点 482.49km 482.779km
远地点 483.582km 483.335km
周期 94.266分钟 94.267分钟
每日圈数 15.275845 15.275774
详细信息
固有亮度:
5
最大亮度:
1.5
卫星平台:
Starlink v2.0 mini
覆盖范围:
全球
运营商:
太空探索技术公司
运营商所在国:
美国
制造商(研发单位):
太空探索技术公司
制造商所在国:
美国
使用方式:
暂无
卫星简介
星链(Starlink)计划是由太空探索技术公司(SpaceX)提出的一个巨型低轨卫星互联网星座项目,计划在2019年至2024年间在太空搭建由约1.2万颗卫星组成的“星链”网络,其中1584颗将部署在地球上空550千米处的近地轨道,并从2020年开始工作。该卫星仍在工作。
2D轨道图
3D轨道图
轨道高度分析图
轨道倾角分析图
轨道综合分析图
查看轨道综合分析图